This demonstration page uses our WeatherBlox Daily Observations layout. Learn more.

Left ArrowRight Arrow

53.62937, 11.41316

Hourly Observations for August 31, 2021

Temp ( °F °C ) Dew Point ( °F °C ) Humidity (%) Winds ( mph kmh ) Pressure ( in mb ) Visibility ( mi km ) Precip ( " mm )
5:50 am 05:50 Mostly Clear 55 13 54 12 94 94 WNW 5 7 30.15 1021 5 8 N/A
6:20 am 06:20 Mostly Clear 55 13 54 12 94 94 WNW 3 6 30.15 1021 6 9 N/A
6:50 am 06:50 Mostly Sunny 54 12 54 12 100 100 VRB 1 2 30.15 1021 7 11 N/A
7:20 am 07:20 Mostly Sunny 55 13 55 13 100 100 VRB 1 2 30.15 1021 7 11 N/A
7:50 am 07:50 Mostly Sunny 57 14 57 14 100 100 VRB 1 2 30.15 1021 7 11 N/A
8:20 am 08:20 Mostly Sunny 59 15 59 15 100 100 VRB 1 2 30.15 1021 7 11 N/A
8:50 am 08:50 Mostly Sunny 61 16 59 15 94 94 VRB 2 4 30.15 1021 7 11 N/A
9:20 am 09:20 Mostly Sunny 63 17 55 13 77 77 VRB 3 6 30.15 1021 7 11 N/A
9:50 am 09:50 Mostly Sunny 64 18 55 13 73 73 VRB 3 6 30.18 1022 7 11 N/A
10:20 am 10:20 Mostly Sunny 64 18 54 12 68 68 VRB 5 7 30.18 1022 7 11 N/A
10:50 am 10:50 Mostly Sunny 66 19 54 12 64 64 VRB 5 7 30.18 1022 30 48 N/A
11:20 am 11:20 Mostly Sunny 66 19 54 12 64 64 NNE 12 19 30.18 1022 30 48 N/A
11:50 am 11:50 Mostly Sunny 68 20 54 12 60 60 N 12 19 30.18 1022 30 48 N/A
12:20 pm 12:20 Mostly Sunny 68 20 54 12 60 60 N 9 15 30.18 1022 30 48 N/A
12:50 pm 12:50 Mostly Sunny 66 19 52 11 60 60 NNE 12 19 30.18 1022 30 48 N/A
1:20 pm 13:20 Mostly Sunny 68 20 52 11 56 56 NNE 14 22 30.18 1022 30 48 N/A
1:50 pm 13:50 Mostly Sunny 70 21 54 12 57 57 NNE 13 20 30.21 1023 30 48 N/A
2:20 pm 14:20 Partly Cloudy 70 21 55 13 60 60 NNE 12 19 30.21 1023 30 48 N/A
2:50 pm 14:50 Partly Cloudy 68 20 54 12 60 60 N 9 15 30.21 1023 30 48 N/A
3:20 pm 15:20 Mostly Sunny 70 21 54 12 57 57 NNE 10 17 30.21 1023 30 48 N/A
3:50 pm 15:50 Mostly Sunny 70 21 52 11 53 53 NNE 10 17 30.18 1022 30 48 N/A
4:20 pm 16:20 Mostly Sunny 68 20 54 12 60 60 N 8 13 30.18 1022 30 48 N/A
4:50 pm 16:50 Mostly Sunny 70 21 52 11 53 53 N 10 17 30.18 1022 30 48 N/A
5:20 pm 17:20 Mostly Sunny 70 21 52 11 53 53 N 10 17 30.18 1022 30 48 N/A
5:50 pm 17:50 Mostly Sunny 70 21 54 12 57 57 NW 10 17 30.18 1022 30 48 N/A
6:20 pm 18:20 Mostly Sunny 70 21 52 11 53 53 NNW 10 17 30.18 1022 30 48 N/A
6:50 pm 18:50 Mostly Sunny 68 20 52 11 56 56 NNW 8 13 30.18 1022 30 48 N/A
7:20 pm 19:20 Mostly Sunny 68 20 54 12 60 60 NW 7 11 30.18 1022 7 11 N/A
7:50 pm 19:50 Mostly Sunny 66 19 54 12 64 64 NW 5 7 30.18 1022 7 11 N/A
8:20 pm 20:20 Mostly Clear 64 18 54 12 68 68 NNW 3 6 30.21 1023 7 11 N/A
8:50 pm 20:50 Mostly Clear 61 16 54 12 77 77 NW 2 4 30.21 1023 7 11 N/A
9:20 pm 21:20 Mostly Clear 61 16 54 12 77 77 NW 2 4 30.21 1023 7 11 N/A
9:50 pm 21:50 Mostly Clear 59 15 54 12 82 82 W 3 6 30.21 1023 7 11 N/A

Powered by AerisWeather